Regional Weather Roundup
Issued by NWS

Home | Current Version | Previous Version | Graphics & Text | Print | Product List | Glossary On
Versions: 1 2 3 4 5 6 7 8 9 10 11 12 13 14 15 16 17 18 19 20 21 22 23 24 25 26 27 28 29 30 31 32 33 34 35 36 37 38 39 40 41 42 43 44 45 46 47 48 49 50
000
ASUS43 KOAX 202010
RWRNE

WEATHER ROUNDUP FOR NEBRASKA
NATIONAL WEATHER SERVICE OMAHA NE
300 PM CDT SUN MAY 20 2018

NOTES: SATELLITE DATA IS BEING USED TO AUGMENT CLOUD COVER ABOVE
       12000 FEET.
       "FAIR" INDICATES FEW OR NO CLOUDS BELOW 12,000 FEET WITH NO
       SIGNIFICANT WEATHER AND/OR OBSTRUCTIONS TO VISIBILITY.


NEZ001>004-019>022-054>056-202100-
NEBRASKA PANHANDLE

CITY           SKY/WX    TMP DP  RH WIND       PRES   REMARKS
SCOTTSBLUFF    MOSUNNY   60  44  55 VRB5      30.17F
ALLIANCE       MOSUNNY   60  38  43 N7        30.17F
CHADRON        CLOUDY    59  38  45 E9        30.18F
GORDON         FAIR      61  40  46 S5        30.18F
KIMBALL        CLOUDY    57  42  58 NE5       30.18F
SIDNEY         MOSUNNY   59  39  47 E8        30.18F
$$

NEZ057>060-069>072-079>082-202100-
SOUTHWEST NEBRASKA

CITY           SKY/WX    TMP DP  RH WIND       PRES   REMARKS
NORTH PLATTE   CLOUDY    61  46  57 N10       30.16F
IMPERIAL       CLOUDY    57  45  64 NE8       30.18F
LEXINGTON      CLOUDY    58  51  77 NE8       30.15F
MCCOOK         CLOUDY    60  47  61 N10       30.15F
OGALLALA       CLOUDY    61  42  50 NE6       30.17F
$$

NEZ005>010-023>029-035>040-094-202100-
NORTH CENTRAL NEBRASKA

CITY           SKY/WX    TMP DP  RH WIND       PRES   REMARKS
VALENTINE      CLOUDY    61  37  41 NE10      30.18F
AINSWORTH      CLOUDY    58  47  69 NE10      30.16F
BROKEN BOW     CLOUDY    59  48  67 N9        30.14F
O`NEILL        CLOUDY    58  48  69 NE8       30.17S
ORD            CLOUDY    56  49  77 N8        30.14F
THEDFORD       PTSUNNY   62  40  44 N8        30.17F
$$

NEZ041-046>049-061>064-073>077-083>087-202100-
SOUTH CENTRAL NEBRASKA

CITY           SKY/WX    TMP DP  RH WIND       PRES   REMARKS
GRAND ISLAND   CLOUDY    57  52  83 N14       30.14F
AURORA         CLOUDY    54  54  97 NE14      30.13S
HASTINGS       CLOUDY    57  53  86 N10       30.13F
HEBRON         CLOUDY    58  56  94 N8        30.10F FOG
HOLDREGE       CLOUDY    55  53  92 N12       30.14F
KEARNEY        CLOUDY    56  52  86 N14       30.14F
YORK           LGT RAIN  54  54 100 NE14      30.14S
$$

NEZ011>018-030>034-042>045-202100-
NORTHEAST NEBRASKA

CITY           SKY/WX    TMP DP  RH WIND       PRES   REMARKS
NORFOLK        CLOUDY    54  50  86 N12       30.14S
ALBION         CLOUDY    56  51  85 N9        30.14F
BLAIR          CLOUDY    55  53  95 N9        30.10F FOG
COLUMBUS       CLOUDY    54  51  90 N13       30.14F
FREMONT        DRIZZLE   55  53  95 N3        30.13F
TEKAMAH        CLOUDY    55  52  89 N12       30.13F
WAYNE          DRIZZLE   52  51  97 N9        30.15F
$$

NEZ050>053-065>068-078-088>093-202100-
SOUTHEAST NEBRASKA

CITY           SKY/WX    TMP DP  RH WIND       PRES   REMARKS
LINCOLN        CLOUDY    56  53  90 N12       30.11F
OMAHA EPPLEY   CLOUDY    59  55  87 N12       30.09F
BEATRICE       CLOUDY    60  57  92 N6        30.10S FOG
FALLS CITY     CLOUDY    69  61  75 N7        30.04F
NEBRASKA CITY  CLOUDY    65  59  79 N9        30.08S
PLATTSMOUTH    CLOUDY    61  55  81 N9        30.08F
$$

NEZ044-045-051>053-067-202100-
OMAHA AREA

CITY           SKY/WX    TMP DP  RH WIND       PRES   REMARKS
OMAHA EPPLEY   CLOUDY    59  55  87 N12       30.09F
BLAIR          CLOUDY    55  53  95 N9        30.10F FOG
FREMONT        DRIZZLE   55  53  95 N3        30.13F
MILLARD        CLOUDY    57  55  91 N7        30.10F
OFFUTT AFB     CLOUDY    58  56  93 N8        30.08F
PLATTSMOUTH    CLOUDY    61  55  81 N9        30.08F
WAHOO          CLOUDY    56  52  88 N13       30.12F
$$



USA.gov is the U.S. government's official web portal to all federal, state and local government web resources and services.